{"data":{"norad_id":55991,"intl_designator":"2023-042F","name":"STARLINK-5948","alt_names":[],"object_type":"PAYLOAD","status":"ACTIVE","operator":null,"country":"US","launch_date":"2023-03-24","launch_site_code":"AFETR","launch_vehicle":null,"mission":null,"orbit_class":"UNKNOWN","rcs_meters":null,"size_class":null,"mass_kg":null,"dimensions":null,"purposes":["comms"],"wikipedia_slug":null,"has_3d_model":false,"image_url":null,"decayed_at":null,"tle_current":{"epoch":"2026-05-24T21:22:30.203904Z","epoch_age_seconds":88507,"freshness":"FRESH","line1":"1 55991U 23042F   26144.89062736 -.00000323  00000+0 -22004-5 0  9990","line2":"2 55991  43.0062 345.8364 0001704 268.2172  91.8485 15.27571433174565","mean_motion":15.27571433,"eccentricity":0.0001704,"inclination_deg":43.0062,"raan_deg":345.8364,"arg_perigee_deg":268.2172,"mean_anomaly_deg":91.8485,"bstar":-2.2004e-6,"rev_number":17456,"period_min":94.267277384992,"perigee_km":481.9055983575,"apogee_km":484.24389932151,"semimajor_km":6861.2117488395,"source":"CELESTRAK","updated_at":"2026-05-25T13:38:17.922660Z"}}}